Rickenbacker, OH

12:27 AM EST on December 08, 2019 (GMT -0500)
Rickenbacker International

Weather History for KLCK - October, 2019

Change the Weather History Date:

Tuesday, October 22, 2019

  Actual Average Record
Temperature  
Mean Temperature 56 °F -  
Max Temperature 64 °F 61 °F 79 °F (2012)
Min Temperature 46 °F 42 °F 26 °F (1997)
Degree Days  
Heating Degree Days 10    
Growing Degree Days 6 (Base 50)    
Moisture  
Dew Point 48 °F    
Average Humidity 71    
Maximum Humidity 97    
Minimum Humidity 39    
Precipitation  
Precipitation 0.00 in - - ()
Sea Level Pressure  
Sea Level Pressure 29.79 in    
Wind  
Wind Speed 12 mph (SW)    
Max Wind Speed 24 mph    
Max Gust Speed 36 mph    
Visibility 10 miles    
Events Rain    
Averages and records for this station are not official NWS values.
T = Trace of Precipitation, MM = Missing Value Source: NWS Daily Summary

Daily Weather History Graph

Daily Weather History Graph

Search for Another Location

Airport or City:

Astronomy

Oct. 22, 2019 Rise Set
Actual Time 7:49 AM EDT 6:42 PM EDT
Civil Twilight 7:21 AM EDT 7:10 PM EDT
Nautical Twilight 6:50 AM EDT 7:41 PM EDT
Astronomical Twilight 6:18 AM EDT 8:12 PM EDT
Moon 12:58 AM EDT (10/22) 3:50 PM EDT (10/22)
Length of Visible Light 11h 48m
Length of Day
10h 53m
Last Quarter, 37% of the Moon is Illuminated
Oct 22
Last Quarter
Oct 27
New
Nov 4
First Quarter
Nov 12
Full
Nov 19
Last Quarter

Hourly Weather History & Observations

Time (EDT) Temp. Dew Point Humidity Pressure Visibility Wind Dir Wind Speed Gust Speed Precip Events Conditions
12:15 AM 60.4 °F 58.5 °F 93% 29.79 in 10.0 mi South 12.7 mph - N/A Rain Light Rain
12:35 AM 60.3 °F 58.3 °F 93% 29.78 in 10.0 mi South 16.1 mph 21.9 mph N/A   Mostly Cloudy
12:55 AM 60.3 °F 58.1 °F 93% 29.78 in 10.0 mi South 13.8 mph 17.3 mph N/A Rain Light Rain
1:15 AM 60.1 °F 58.3 °F 94% 29.78 in 10.0 mi SSW 11.5 mph - N/A   Overcast
1:35 AM 60.3 °F 58.8 °F 95% 29.78 in 10.0 mi South 13.8 mph - N/A   Overcast
1:55 AM 60.3 °F 58.8 °F 95% 29.78 in 10.0 mi South 11.5 mph - N/A   Overcast
2:15 AM 60.3 °F 58.6 °F 94% 29.78 in 10.0 mi SSW 10.4 mph - N/A   Overcast
2:35 AM 60.1 °F 58.6 °F 95% 29.78 in 10.0 mi SSW 8.1 mph - N/A   Overcast
2:55 AM 60.1 °F 58.5 °F 94% 29.78 in 10.0 mi South 8.1 mph - N/A Rain Light Rain
3:15 AM 59.9 °F 58.3 °F 94% 29.78 in 10.0 mi SSW 8.1 mph - N/A   Overcast
3:35 AM 59.9 °F 58.1 °F 94% 29.76 in 10.0 mi SSW 9.2 mph - N/A   Overcast
3:55 AM 59.7 °F 57.7 °F 93% 29.76 in 10.0 mi SSW 8.1 mph - N/A   Overcast
4:15 AM 59.4 °F 57.7 °F 94% 29.75 in 10.0 mi SSW 8.1 mph - N/A   Overcast
4:35 AM 59.2 °F 57.4 °F 94% 29.74 in 10.0 mi SSW 8.1 mph - N/A   Overcast
4:55 AM 59.0 °F 57.2 °F 94% 29.75 in 10.0 mi South 8.1 mph - N/A   Overcast
5:15 AM 59.0 °F 56.7 °F 92% 29.75 in 10.0 mi South 9.2 mph - N/A   Overcast
5:35 AM 59.2 °F 56.7 °F 91% 29.79 in 10.0 mi SSW 11.5 mph - N/A   Overcast
5:55 AM 58.8 °F 56.3 °F 91% 29.77 in 10.0 mi South 8.1 mph - N/A   Overcast
6:15 AM 58.6 °F 56.1 °F 91% 29.77 in 10.0 mi South 11.5 mph - N/A Rain Light Rain
6:35 AM 58.3 °F 56.1 °F 93% 29.76 in 10.0 mi South 9.2 mph - N/A Rain Rain
6:55 AM 57.7 °F 56.3 °F 95% 29.75 in 10.0 mi SSW 8.1 mph - N/A Rain Light Rain
7:15 AM 57.4 °F 56.1 °F 96% 29.76 in 10.0 mi South 9.2 mph - N/A   Overcast
7:35 AM 56.8 °F 55.4 °F 95% 29.78 in 10.0 mi SSW 11.5 mph - N/A   Mostly Cloudy
7:55 AM 56.5 °F 55.0 °F 95% 29.77 in 10.0 mi SSW 9.2 mph - N/A   Scattered Clouds
8:15 AM 56.3 °F 54.9 °F 95% 29.76 in 10.0 mi SSW 8.1 mph - N/A   Scattered Clouds
8:35 AM 56.3 °F 55.2 °F 96% 29.77 in 10.0 mi SSW 9.2 mph - N/A   Scattered Clouds
8:55 AM 56.3 °F 55.4 °F 97% 29.77 in 10.0 mi South 8.1 mph - N/A   Clear
9:15 AM 57.0 °F 55.6 °F 95% 29.77 in 10.0 mi SSW 9.2 mph - N/A   Clear
9:35 AM 58.5 °F 55.2 °F 89% 29.78 in 10.0 mi SSW 12.7 mph - N/A   Clear
9:55 AM 59.0 °F 54.1 °F 84% 29.78 in 10.0 mi SSW 12.7 mph 17.3 mph N/A   Clear
10:15 AM 59.7 °F 53.1 °F 79% 29.77 in 10.0 mi SSW 12.7 mph 18.4 mph N/A   Clear
10:35 AM 60.1 °F 49.5 °F 68% 29.77 in 10.0 mi SSW 16.1 mph 26.5 mph N/A   Clear
10:55 AM 61.0 °F 46.8 °F 59% 29.76 in 10.0 mi SW 16.1 mph 23.0 mph N/A   Clear
11:15 AM 61.7 °F 44.8 °F 54% 29.76 in 10.0 mi SW 19.6 mph 24.2 mph N/A   Scattered Clouds
11:55 AM 60.4 °F 45.0 °F 57% 29.77 in 10.0 mi SW 19.6 mph 28.8 mph N/A   Clear
12:15 PM 62.4 °F 44.8 °F 52% 29.77 in 10.0 mi SW 23.0 mph 29.9 mph N/A   Scattered Clouds
12:35 PM 62.2 °F 44.1 °F 51% 29.77 in 10.0 mi WSW 21.9 mph - N/A   Scattered Clouds
12:55 PM 61.9 °F 43.3 °F 51% 29.77 in 10.0 mi SW 20.7 mph 28.8 mph N/A   Scattered Clouds
1:15 PM 63.3 °F 43.3 °F 48% 29.76 in 10.0 mi WSW 23.0 mph 33.4 mph N/A   Scattered Clouds
1:35 PM 63.5 °F 41.7 °F 45% 29.76 in 10.0 mi WSW 23.0 mph 31.1 mph N/A   Scattered Clouds
1:55 PM 63.1 °F 40.3 °F 43% 29.76 in 10.0 mi SW 24.2 mph 35.7 mph N/A   Scattered Clouds
2:15 PM 63.5 °F 40.1 °F 42% 29.76 in 10.0 mi WSW 24.2 mph 29.9 mph N/A   Scattered Clouds
2:35 PM 63.5 °F 39.7 °F 42% 29.76 in 10.0 mi WSW 21.9 mph 31.1 mph N/A   Scattered Clouds
2:55 PM 64.0 °F 39.6 °F 41% 29.76 in 10.0 mi SW 19.6 mph 26.5 mph N/A   Mostly Cloudy
3:15 PM 63.7 °F 39.0 °F 40% 29.76 in 10.0 mi SW 19.6 mph 26.5 mph N/A   Scattered Clouds
3:35 PM 64.0 °F 38.7 °F 39% 29.77 in 10.0 mi WSW 17.3 mph 26.5 mph N/A   Scattered Clouds
3:55 PM 62.8 °F 38.3 °F 40% 29.77 in 10.0 mi SW 17.3 mph 25.3 mph N/A   Mostly Cloudy
4:15 PM 62.4 °F 38.1 °F 41% 29.78 in 10.0 mi WSW 17.3 mph 28.8 mph N/A   Mostly Cloudy
4:35 PM 63.0 °F 37.4 °F 39% 29.79 in 10.0 mi WSW 19.6 mph 27.6 mph N/A   Mostly Cloudy
4:55 PM 62.1 °F 36.9 °F 39% 29.79 in 10.0 mi WSW 16.1 mph 23.0 mph N/A   Mostly Cloudy
5:15 PM 60.8 °F 36.7 °F 41% 29.80 in 10.0 mi WSW 15.0 mph 24.2 mph N/A   Mostly Cloudy
5:35 PM 59.9 °F 36.7 °F 42% 29.81 in 10.0 mi West 16.1 mph 25.3 mph N/A   Mostly Cloudy
5:55 PM 59.9 °F 36.9 °F 42% 29.81 in 10.0 mi West 15.0 mph 20.7 mph N/A   Overcast
6:15 PM 58.8 °F 37.0 °F 44% 29.82 in 10.0 mi West 15.0 mph 20.7 mph N/A   Scattered Clouds
6:35 PM 57.7 °F 36.9 °F 46% 29.83 in 10.0 mi West 10.4 mph - N/A   Mostly Cloudy
6:55 PM 56.3 °F 37.2 °F 49% 29.83 in 10.0 mi WSW 9.2 mph - N/A   Mostly Cloudy
7:15 PM 54.3 °F 37.4 °F 53% 29.84 in 10.0 mi WSW 6.9 mph - N/A   Scattered Clouds
7:35 PM 52.5 °F 37.2 °F 56% 29.85 in 10.0 mi WSW 6.9 mph - N/A   Clear
7:55 PM 51.4 °F 37.0 °F 58% 29.86 in 10.0 mi WSW 6.9 mph - N/A   Scattered Clouds
8:35 PM 49.5 °F 36.7 °F 61% 29.87 in 10.0 mi SW 4.6 mph - N/A   Scattered Clouds
8:55 PM 49.8 °F 37.4 °F 62% 29.88 in 10.0 mi SW 5.8 mph - N/A   Mostly Cloudy
9:15 PM 49.6 °F 37.9 °F 64% 29.89 in 10.0 mi WSW 5.8 mph - N/A   Overcast
9:35 PM 49.5 °F 38.8 °F 67% 29.89 in 10.0 mi SW 5.8 mph - N/A   Overcast
9:55 PM 48.4 °F 39.2 °F 71% 29.90 in 10.0 mi SW 5.8 mph - N/A   Mostly Cloudy
10:15 PM 48.2 °F 38.7 °F 70% 29.90 in 10.0 mi WSW 6.9 mph - N/A   Overcast
10:35 PM 47.8 °F 38.5 °F 70% 29.91 in 10.0 mi SW 5.8 mph - N/A   Mostly Cloudy
11:15 PM 48.9 °F 40.1 °F 72% 29.93 in 7.0 mi WNW 17.3 mph 21.9 mph N/A Rain Light Rain
11:55 PM 46.9 °F 40.6 °F 79% 29.93 in 10.0 mi SW 4.6 mph - N/A   Scattered Clouds